www.pogodaiklimat.ru

Погода и климат >> Архив погоды >> Россия >> Якутия >> Юбилейная


АРХИВ ПОГОДЫ в Юбилейной

Время (UTC), дата Ветер
(напр.,м/с)
 
Видим.   Явления Облачность Т
(С)
Тd
(С)
f
(%)
Тe
(С)
Тes
(С)
Комфортность P
(гПа)
Po
(гПа)
Тmin
(С)
Tmax
(С)
R
(мм)
R24
(мм)
S
(см)
12 18.05 С 2 20 км 10/9 600 м
[Sc]
-9.4 -14.0 69 -14 -14 1026.2 1023.2
15 18.05 С 3 20 км 10/0
[As trans]
-10.6 -15.0 70 -16 -16 1026.5 1023.2
18 18.05 СЗ 2 20 км 10/0
[Ac trans]
-11.7 -14.5 80 -16 -16 1027.1 1023.8
21 18.05 СЗ 2 20 км 10/9 600 м
[Sc]
-9.6 -13.7 72 -14 -14 1027.6 1024.2 -12.0 0
00 19.05 штиль 0 20 км 10/9 600 м
[Sc]
-7.6 -12.1 70 -8 -8 1025.9 1022.7
03 19.05 СЗ 3 20 км 10/0
[Ac trans]
-6.3 -12.2 63 -12 -8 1024.0 1020.8
06 19.05 СЗ 2 20 км 10/0
[Ac trans]
-5.2 -11.1 63 -9 -6 1022.3 1019.1
09 19.05 З 3 20 км 10/0
[Ac trans]
-7.2 -12.0 69 -13 -12 1020.4 1017.2 -5.0
12 19.05 З 3 20 км 10/0
[Ac trans]
-7.9 -12.5 69 -14 -13 1019.4 1016.2
15 19.05 З 2 20 км 10/0
[As trans]
-8.4 -12.6 72 -13 -13 1018.6 1015.4
18 19.05 З 3 20 км 10/0
[As trans]
-10.4 -14.0 75 -16 -16 1016.6 1014.4
21 19.05 СЗ 2 20 км 10/0
[Ac trans]
-9.1 -13.6 70 -13 -12 1017.2 1014.0 -10.7 0
00 20.05 З 3 10 км слаб. снег 10/10 600 м
[Sc]
-8.8 -13.7 68 -14 -14 1016.2 1013.0
03 20.05 ЮЗ 3 10 км слаб. снег 10/0
[As op]
-7.2 -13.0 63 -13 -11 1015.4 1012.2
06 20.05 З 2 10 км слаб. снег 10/0
[As op]
-7.0 -12.7 64 -11 -10 1015.4 1012.2
09 20.05 З 3 20 км {снег} ясно -7.2 -13.6 60 -13 -11 1015.8 1012.6 -6.4 0.6
12 20.05 З 3 20 км 8/0
[Ac trans]
-8.2 -12.7 70 -14 -14 1016.2 1013.0
15 20.05 З 2 20 км 10/0
[As trans]
-8.9 -12.8 73 -13 -13 1016.7 1013.5
18 20.05 ЮЗ 3 20 км 8/8 600 м
[Sc]
-9.4 -12.4 79 -15 -15 1017.0 1013.8
21 20.05 ЮЗ 2 20 км 8/0
[Ac trans]
-7.9 -12.0 72 -12 -11 1017.9 1014.7 -9.4 0
00 21.05 Ю 2 20 км 3/0
[Ci fib]
-5.2 -11.6 61 -9 -2 1017.0 1013.8
03 21.05 Ю 5 20 км 8/0
[Ci ing]
+0.1 -8.8 51 -5 -1 1016.1 1013.0
06 21.05 Ю 3 20 км 6/0
[Ci ing]
+3.2 -7.4 46 0 +5 1015.9 1012.8
09 21.05 Ю 3 20 км 8/0
[Ci fib]
+3.0 -6.9 48 -0 +1 1016.2 1013.1 +3.6
12 21.05 ЮВ 3 20 км 6/0
[Ci ing]
-1.4 -7.7 62 -6 -6 1016.7 1013.6
15 21.05 ЮВ 4 20 км 8/0
[Ci fib]
-2.6 -8.2 65 -8 -8 1016.1 1013.0
18 21.05 ЮВ 3 20 км 4/0
[Ci fib]
-4.4 -8.7 72 -10 -9 1015.8 1012.6
21 21.05 ЮВ 2 20 км 8/0
[Ci ing]
-3.0 -8.8 64 -7 -4 1015.1 1012.0 -7.4 0
00 22.05 ЮВ 2 20 км ясно +3.0 -5.8 52 +1 +8 1014.3 1011.2
03 22.05 ЮВ 2 20 км ясно +4.6 -5.4 48 +3 +12 опасность
простуды
1013.7 1010.7
06 22.05 ЮВ 3 20 км ясно +7.0 -4.4 44 +5 +10 1012.2 1009.2
09 22.05 ЮВ 5 20 км ясно +6.6 -2.1 54 +3 +4 1010.9 1007.9 +7.3
12 22.05 В 4 20 км ясно +3.2 -2.2 68 -1 -1 1009.9 1006.9
15 22.05 В 6 20 км ясно +0.8 -4.2 69 -5 -5 1008.9 1005.8
18 22.05 В 7
{11}
20 км ясно +0.2 -2.7 81 -7 -7 1007.6 1004.5
21 22.05 ЮВ 8
{12}
20 км ясно +1.1 -3.8 70 -6 -5 1006.6 1003.5 -0.2 0
00 23.05 В 6 20 км 8/0
[Ci ing]
+4.4 -1.7 65 -1 +2 1003.9 1000.9
03 23.05 СВ 5 20 км 9/0
[Ci ing]
+4.8 -1.5 64 0 +5 1001.8 998.8
06 23.05 В 6 20 км 10/0
[Ac trans]
+5.0 -0.9 66 0 +1 999.9 996.9
09 23.05 СВ 6
{11}
10 км слаб. дождь 10/0
[Ac und]
+3.2 -1.9 69 -2 -2 999.1 996.1 +5.3 0.4
12 23.05 СВ 5 10 км слаб. дождь 10/0
[Ac und]
+3.2 -1.9 69 -2 -2 999.8 996.8
15 23.05 СВ 6 10 км слаб. дождь 10/10 600 м
[Sc]
+1.9 -2.5 73 -4 -4 1000.5 997.5
18 23.05 СВ 4 10 км слаб. дождь 10/10 600 м
[Sc]
+0.6 -3.3 75 -5 -5 1001.5 998.5
21 23.05 СВ 5 10 км слаб. дождь 10/10 600 м
[Sc]
+0.1 -3.6 76 -6 -6 1002.7 999.7 -0.1 1 0
00 24.05 СЗ 1 10 км слаб. дождь 10/10 600 м
[Sc]
+0.5 -2.9 78 -1 -1 1002.7 999.7
03 24.05 З 4 20 км {снег, дождь} 10/9 600 м
[Sc]
-0.8 -5.7 69 -6 -6 1002.1 999.0
06 24.05 З 5 20 км {снег} 10/9 600 м
[Sc]
-1.2 -5.9 70 -7 -7 1001.4 998.3
09 24.05 З 5 20 км 10/9 600 м
[Sc]
-2.1 -6.7 71 -8 -8 1002.2 999.1 +0.5 0.2
12 24.05 З 4 20 км 10/9 600 м
[Sc]
-2.9 -7.1 73 -9 -9 1003.1 1000.0
15 24.05 З 6 20 км 10/9 600 м
[Sc]
-3.2 -7.1 74 -10 -10 1003.1 1001.0
18 24.05 штиль 0 50 км ?/? -3.9 -7.6 75 -5 -5 1004.7 1001.6
21 24.05 З 4 20 км 10/9 600 м
[Sc]
-2.2 -5.1 80 -8 -8 1005.8 1002.7 -4.2 0
00 25.05 З 4 20 км 10/9 600 м
[Sc]
-0.9 -4.8 75 -6 -6 1005.8 1002.7
03 25.05 З 5 20 км 10/9 600 м
[Sc]
-0.5 -6.0 66 -6 -6 1005.8 1002.7
06 25.05 ЮЗ 3 20 км 10/9 600 м
[Sc]
0.0 -5.7 65 -4 -4 1006.1 1003.0

 

Местоположение метеостанции Юбилейная (Якутия, Россия): широта 70.77 долгота 136.20 высота над уровнем моря 24 м.

В архиве по умолчанию представлена погода в Юбилейной за последнюю неделю. Архивные данные за месяц целиком и за предыдущие месяцы, начиная с января 2011 года, Вы можете получить, выбрав интересующий диапазон дат из раскрывающегося списка и нажав кнопку "Ввод!".


*Определитесь, кто Вы:
робот инопланетянин человек

Внимание! Время в таблицах - всемирное. Для получения местного времени необходимо прибавить поправку, которая равна 10 ч.

Смотрите также архив погоды в соседних городах и на ближайших метеорологических станциях:

Погода в Усть-Куйге (Якутия, Россия) (89 км)
Погода в Депутатском (Якутия, Россия) (206 км)
Погода в Тикси (Якутия, Россия) (277 км)
Погода на Мысе Быков (Якутия, Россия) (287 км)
Погода на Мысе Кигилях (Якутия, Россия) (310 км)
Погода в Кюсюре (Якутия, Россия) (323 км)
Погода в Батагае (Якутия, Россия) (353 км)
Погода в Верхоянске (Якутия, Россия) (373 км)
Погода на Столб Острове (Якутия, Россия) (392 км)
Погода в Батагай-Алыте (Якутия, Россия) (403 км)

Пояснения к столбцам:

Ветер - указаны скорость ветра в м/с - средняя за 10 мин, порывы в срок и между сроками (в фигурных скобках) и направление, откуда дует ветер: С - северный, СВ - северо-восточный, В - восточный, ЮВ - юго-восточный, Ю - южный, ЮЗ - юго-западный, З - западный, СЗ - северо-западный.
Видимость - горизонтальная дальность видимости в метрах или километрах. При видимости от 1 до 10 км при отсутствии осадков обычно наблюдается дымка, при ухудшении видимости до 1 км и менее - туман. В сухую погоду видимость может ухудшаться дымом, пылью или мглою.
Явления - указаны атмосферные явления, наблюдавшиеся в срок или в последний час перед сроком; фигурными скобками обозначены явления, наблюдавшиеся между сроками (за 1-3 часа до срока); квадратными скобками обозначены град или гололедные отложения с указанием их диаметра в мм.
Облачность - указаны через наклонную черту общая и нижняя облачность в баллах и высота нижней границы облаков в метрах; квадратными скобками обозначены формы облаков: Ci - перистые, Cs - перисто-слоистые, Cc - перисто-кучевые, Ac - высококучевые, As - высокослоистые, Sc - слоисто-кучевые, Ns - слоисто-дождевые, Cu - кучевые, Cb - кучево-дождевые. Подробнее классификацию облаков см. в Атласе облаков (PDF).
T - Температура воздуха - температура, измеренная на высоте 2 м над землей.
Td - Температура точки росы - температура, при понижении до которой содержащийся в воздухе водяной пар достигнет насыщения.
f - Относительная влажность воздуха - влажноcть воздуха, измеренная на высоте 2 м над землей.
Te - Эффективная температура - температура, которую ощущает одетый по сезону человек в тени. Характеристика душности погоды. При расчете учитывается влияние влажности воздуха и скорости ветра на теплоощущения человека.
Tes - Эффективная температура на солнце - температура, которую ощущает человек, с поправкой на солнечный нагрев. Характеристика знойности погоды. Зависит от высоты солнца над горизонтом, облачности и скорости ветра. Ночью, в пасмурную погоду, а также при ветре 12 м/с и более поправка равна нулю.
P - Атмосферное давление - приведенное к уровню моря атмосферное давление.
Po - Атмосферное давление - измеренное на уровне метеостанции атмосферное давление.
Tmin - Минимальная температура - минимум температуры воздуха на высоте 2 м над землей.
Tmax - Максимальная температура - максимум температуры воздуха на высоте 2 м над землей.
R - Количество осадков - Количество выпавших осадков за период времени, мм. При наведении курсора мыши на число - период времени, за который выпало указанное количество осадков.
R24 - Количество осадков - Количество выпавших осадков за 24 часа, мм.
S - Снежный покров - Высота снежного покрова, см. При наведении курсора мыши на число - состояние снежного покрова и степень покрытия местности в баллах.